Regional Weather Roundup
Issued by NWS

Home | Current Version | Previous Version | Text Only | Print | Product List | Glossary On
Versions: 1 2 3 4 5 6 7 8 9 10 11 12 13 14 15 16 17 18 19 20 21 22 23 24 25 26 27 28 29 30 31 32 33 34 35 36 37 38 39 40 41 42 43 44 45 46 47 48 49 50
000
ASUS45 KBOI 071410
RWRID

IDAHO REGIONAL WEATHER ROUNDUP
NATIONAL WEATHER SERVICE BOISE ID
700 AM MST WED DEC 07 2016

NOTE: "FAIR" INDICATES FEW OR NO CLOUDS BELOW 12000 FEET
WITH NO SIGNIFICANT WEATHER AND/OR OBSTRUCTIONS TO VISIBILITY

IDZ012-014-071500-
SOUTHWEST IDAHO


CITY           SKY/WX    TMP DP  RH WIND       PRES   REMARKS
BOISE          CLOUDY    16  12  84 S3        30.29R
CALDWELL       CLOUDY     7   4  87 CALM      30.34R
MOUNTAIN HOME  FOG       15  13  95 CALM      30.29R VSB 1/4
$$

IDZ016-017-071500-
SOUTHCENTRAL IDAHO


CITY           SKY/WX    TMP DP  RH WIND       PRES   REMARKS
BURLEY         LGT SNOW  18  14  84 W8        30.20R FOG     WCI   8
JEROME         CLOUDY    18  15  88 W8        30.22R WCI   8
TWIN FALLS     CLOUDY    18  13  80 SW9       30.22R WCI   7
$$

IDZ019>023-071500-
SOUTHEAST IDAHO


CITY           SKY/WX    TMP DP  RH WIND       PRES   REMARKS
IDAHO FALLS    CLEAR      3  -2  79 N5        30.18R WCI  -6
POCATELLO      FLURRIES  16  13  88 NE3       30.19R
REXBURG        CLEAR     -1  -5  82 NE6       30.17R WCI -13
$$

IDZ006-010-011-018-031-032-071500-
CENTRAL IDAHO MOUNTAINS


CITY           SKY/WX    TMP DP  RH WIND       PRES   REMARKS
MCCALL         CLOUDY    11   7  84 CALM      30.12R
HAILEY         PTCLDY     1  -4  78 NW8       30.14R WCI -12
STANLEY          N/A     -9 -14  78 CALM      30.10R
SALMON         CLOUDY    10   7  85 CALM      30.22R
CHALLIS        CLOUDY    11   9  92 CALM      30.15R
$$

IDZ002-004-006-007-026-071500-
NORTHERN IDAHO


CITY           SKY/WX    TMP DP  RH WIND       PRES   REMARKS
LEWISTON       CLOUDY    21  14  74 E3        30.41R
LOWELL         NOT AVBL
COEUR D`ALENE  FLURRIES  21  12  68 N10       30.35R WCI  10
MULLAN PASS    CLOUDY     4   1  88 CALM      30.08R
$$



USA.gov is the U.S. government's official web portal to all federal, state and local government web resources and services.